Flag for United Kingdom Weather past 2 weeks in Slough, England, United Kingdom

Now
46 °F

Rain. Partly cloudy.


Feels Like: 43 °F
Forecast: 40 / 53 °F
Wind: 7 mph from Southwest

Location: London City Airport

Current Time: Dec 21, 2014 at 4:59:34 AM

Latest Report: Dec 21, 2014 at 4:20 AM


Visibility: N/A

Pressure: 30.42 "Hg

Humidity: 82%

Dew point: 41 °F

Location of SloughLocation

Historic Weather in Slough — Graph

°F

Slough temperature yesterday

Maximum temperature yesterday: 50 °F (at 11:20 AM)
Minimum temperature yesterday: 43 °F (at 1:50 AM)
Average temperature yesterday: 46 °F

Past Weeks' High & Low Weather Summary

 TemperatureHumidityPressure
High57 °F (Dec 17, 1:50 PM)100% (Dec 16, 2:20 AM)30.45 "Hg (Dec 16, 2:20 AM)
Low34 °F (Dec 6, 6:20 AM)50% (Dec 10, 12:50 PM)29.27 "Hg (Dec 12, 4:50 AM)
Average46 °F76%29.96 "Hg
* Reported Dec 6 3:20 AM — Dec 21 3:50 AM, Slough, Weather by CustomWeather, © 2014

Note: Actual official high and low records may vary slightly from our data, if they occured in-between our weather recording intervals... More about our weather records

Advertising

Slough weather history for previous 24 hours

 ConditionsComfort  
Time TempWeatherWind HumidityBarometerVisibility
3:50 AM
Dec 21
45 °FPassing clouds.7 mph81%30.42 "HgN/A
3:20 AM45 °FPassing clouds.8 mph81%30.42 "HgN/A
2:50 AM43 °FPassing clouds.7 mph87%30.42 "HgN/A
2:20 AM43 °FPassing clouds.9 mph81%30.45 "HgN/A
1:50 AM43 °FPassing clouds.13 mph81%30.45 "HgN/A
1:20 AM43 °FQuite cool.10 mph81%30.45 "HgN/A
12:20 AM43 °FQuite cool.10 mph81%30.45 "HgN/A
11:50 PM
Dec 20
43 °FQuite cool.10 mph81%30.45 "HgN/A
11:20 PM45 °FQuite cool.12 mph76%30.45 "HgN/A
10:50 PM45 °FQuite cool.9 mph76%30.45 "HgN/A
10:20 PM45 °FQuite cool.10 mph76%30.45 "HgN/A
9:50 PM45 °FQuite cool.9 mph76%30.45 "HgN/A
9:20 PM45 °FQuite cool.10 mph76%30.45 "HgN/A
8:50 PM46 °FCool.10 mph71%30.42 "HgN/A
8:20 PM46 °FCool.12 mph71%30.42 "HgN/A
7:50 PM46 °FPassing clouds.13 mph71%30.42 "HgN/A
7:20 PM46 °FPassing clouds.14 mph71%30.42 "HgN/A
6:50 PM46 °FPassing clouds.12 mph71%30.42 "HgN/A
6:20 PM46 °FPassing clouds.13 mph71%30.39 "HgN/A
5:50 PM46 °FCool.15 mph71%30.39 "HgN/A
5:20 PM48 °FCool.15 mph66%30.36 "HgN/A
4:50 PM48 °FCool.14 mph66%30.36 "HgN/A
4:20 PM48 °FPassing clouds.16 mph66%30.33 "HgN/A
3:50 PM50 °FOvercast.13 mph62%30.33 "HgN/A
3:20 PM50 °FPartly sunny.17 mph58%30.33 "HgN/A
2:50 PM50 °FOvercast.17 mph58%30.30 "HgN/A
2:20 PM50 °FPartly sunny.17 mph58%30.30 "HgN/A
1:50 PM50 °FPartly sunny.20 mph62%30.30 "HgN/A
1:20 PM50 °FScattered clouds.20 mph58%30.27 "HgN/A
12:20 PM50 °FPassing clouds.18 mph58%30.27 "HgN/A
11:50 AM48 °FPassing clouds.21 mph66%30.27 "HgN/A
11:20 AM50 °FPassing clouds.20 mph62%30.27 "HgN/A
10:50 AM48 °FPassing clouds.17 mph66%30.27 "HgN/A
10:20 AM48 °FPassing clouds.17 mph66%30.27 "HgN/A
9:50 AM46 °FPassing clouds.17 mph71%30.27 "HgN/A
9:20 AM46 °FPassing clouds.16 mph71%30.24 "HgN/A
8:50 AM46 °FPassing clouds.18 mph71%30.24 "HgN/A
8:20 AM45 °FPassing clouds.15 mph76%30.24 "HgN/A
7:50 AM46 °FPassing clouds.16 mph71%30.24 "HgN/A
7:20 AM45 °FPassing clouds.17 mph76%30.21 "HgN/A
6:50 AM45 °FPassing clouds.15 mph76%30.24 "HgN/A
6:20 AM45 °FPassing clouds.15 mph76%30.21 "HgN/A
5:50 AM45 °FPassing clouds.16 mph71%30.24 "HgN/A
5:20 AM45 °FOvercast.16 mph71%30.24 "HgN/A
4:50 AM45 °FOvercast.16 mph71%30.24 "HgN/A
4:20 AM45 °FPassing clouds.16 mph76%30.21 "HgN/A
Weather by CustomWeather, © 2014

See weather overviewHow to use our weather pages